When you browse on this site, cookies collect data to enhance your experience and personalize the content and advertising you see.
Visit our Privacy Policy to learn more. By continuing to use the site, you agree to this use of cookies and data.
  • In Sweden
  • List of Countries
  • For 7 days
  • Water Temperature
  • Satellite Maps
  • Weather Map
  • Weather Widgets
  • user-avatar
    Login

    Hourly Weather Fedosovo

    Today, 23 January, Wednesday

    Time Temperature Precipitation Wind Pressure Humidity
    00:00 -19°C° 0 mm 1 mps 746 mmHg 93%
    01:00 -19°C° 0 mm 1 mps 746 mmHg 93%
    02:00 -18°C° 0 mm 1 mps 746 mmHg 93%
    03:00 -18°C° 0 mm 1 mps 746 mmHg 94%
    04:00 -17°C° 0 mm 1 mps 746 mmHg 95%
    05:00 -17°C° 0 mm 1 mps 746 mmHg 96%
    06:00 -19°C° 0 mm 2 mps 746 mmHg 96%
    07:00 -19°C° 0 mm 2 mps 746 mmHg 97%
    08:00 -18°C° 0 mm 2 mps 746 mmHg 98%
    09:00 -17°C° 0 mm 2 mps 746 mmHg 97%
    10:00 -15°C° 0 mm 2 mps 746 mmHg 96%
    11:00 -14°C° 0 mm 2 mps 746 mmHg 95%
    12:00 -13°C° 0 mm 2 mps 746 mmHg 95%
    13:00 -13°C° 0 mm 2 mps 746 mmHg 94%
    14:00 -12°C° 0 mm 2 mps 745 mmHg 94%
    15:00 -13°C° 0 mm 2 mps 745 mmHg 94%
    16:00 -13°C° 0 mm 2 mps 745 mmHg 95%
    17:00 -13°C° 0 mm 2 mps 745 mmHg 96%
    18:00 -14°C° 0 mm 2 mps 745 mmHg 97%
    19:00 -14°C° 0 mm 2 mps 745 mmHg 97%
    20:00 -15°C° 0 mm 2 mps 745 mmHg 97%
    21:00 -16°C° 0 mm 2 mps 744 mmHg 98%
    22:00 -16°C° 0 mm 2 mps 744 mmHg 98%
    23:00 -17°C° 0 mm 2 mps 744 mmHg 98%

    Tomorrow, 24 January, Thursday

    Time Temperature Precipitation Wind Pressure Humidity
    00:00 -17°C° 0 mm 2 mps 744 mmHg 98%
    01:00 -18°C° 0 mm 2 mps 744 mmHg 98%
    02:00 -18°C° 0 mm 2 mps 744 mmHg 98%
    03:00 -16°C° 0 mm 1 mps 744 mmHg 98%
    04:00 -17°C° 0 mm 1 mps 743 mmHg 98%
    05:00 -17°C° 0 mm 1 mps 743 mmHg 98%
    06:00 -16°C° 0 mm 1 mps 743 mmHg 98%
    07:00 -16°C° 0 mm 1 mps 743 mmHg 98%
    08:00 -15°C° 0 mm 1 mps 744 mmHg 98%
    09:00 -14°C° 0 mm 1 mps 744 mmHg 96%
    10:00 -13°C° 0 mm 1 mps 744 mmHg 95%
    11:00 -12°C° 0 mm 1 mps 744 mmHg 94%
    12:00 -11°C° 0 mm 1 mps 744 mmHg 93%
    13:00 -10°C° 0 mm 1 mps 744 mmHg 93%
    14:00 -10°C° 0 mm 1 mps 744 mmHg 93%
    15:00 -11°C° 0 mm 1 mps 744 mmHg 93%
    16:00 -13°C° 0 mm 1 mps 745 mmHg 94%
    17:00 -16°C° 0 mm 2 mps 745 mmHg 95%
    18:00 -15°C° 0 mm 1 mps 745 mmHg 95%
    19:00 -15°C° 0 mm 1 mps 745 mmHg 95%
    20:00 -15°C° 0 mm 1 mps 746 mmHg 95%
    21:00 -17°C° 0 mm 2 mps 746 mmHg 95%
    22:00 -16°C° 0 mm 2 mps 747 mmHg 96%
    23:00 -16°C° 0 mm 2 mps 747 mmHg 96%

    Day after tomorrow, 25 January, Friday

    Time Temperature Precipitation Wind Pressure Humidity
    00:00 -16°C° 0 mm 2 mps 747 mmHg 96%
    01:00 -16°C° 0 mm 2 mps 748 mmHg 96%
    02:00 -16°C° 0 mm 2 mps 748 mmHg 97%
    03:00 -17°C° 0 mm 2 mps 748 mmHg 97%
    04:00 -18°C° 0 mm 2 mps 748 mmHg 97%
    05:00 -18°C° 0 mm 2 mps 748 mmHg 98%
    06:00 -19°C° 0 mm 2 mps 749 mmHg 98%
    07:00 -19°C° 0 mm 2 mps 749 mmHg 98%
    08:00 -19°C° 0 mm 2 mps 749 mmHg 97%
    09:00 -19°C° 0 mm 3 mps 750 mmHg 95%
    10:00 -18°C° 0 mm 3 mps 750 mmHg 93%
    11:00 -17°C° 0 mm 3 mps 750 mmHg 91%
    12:00 -17°C° 0 mm 3 mps 750 mmHg 90%
    13:00 -16°C° 0 mm 3 mps 750 mmHg 88%
    14:00 -15°C° 0 mm 3 mps 749 mmHg 87%
    15:00 -16°C° 0 mm 3 mps 749 mmHg 88%
    16:00 -17°C° 0 mm 3 mps 749 mmHg 89%
    17:00 -19°C° 0 mm 4 mps 749 mmHg 90%
    18:00 -19°C° 0 mm 4 mps 749 mmHg 90%
    19:00 -19°C° 0 mm 4 mps 749 mmHg 89%
    20:00 -20°C° 0 mm 4 mps 749 mmHg 89%
    21:00 -20°C° 0 mm 4 mps 749 mmHg 88%
    22:00 -20°C° 0 mm 4 mps 749 mmHg 87%
    23:00 -20°C° 0 mm 4 mps 749 mmHg 86%

    26 January, Saturday

    Time Temperature Precipitation Wind Pressure Humidity
    00:00 -19°C° 0 mm 4 mps 748 mmHg 86%
    01:00 -19°C° 0 mm 4 mps 748 mmHg 85%
    02:00 -19°C° 0 mm 4 mps 747 mmHg 84%
    03:00 -19°C° 0.2 mm 4 mps 747 mmHg 86%
    04:00 -19°C° 0.2 mm 4 mps 746 mmHg 89%
    05:00 -18°C° 0.2 mm 4 mps 745 mmHg 92%
    06:00 -18°C° 0.5 mm 4 mps 745 mmHg 93%
    07:00 -18°C° 0.5 mm 4 mps 744 mmHg 93%
    08:00 -19°C° 0.5 mm 5 mps 744 mmHg 94%
    09:00 -18°C° 0.8 mm 4 mps 743 mmHg 95%
    10:00 -17°C° 0.8 mm 4 mps 743 mmHg 95%
    11:00 -16°C° 0.8 mm 3 mps 742 mmHg 95%
    12:00 -15°C° 0.6 mm 3 mps 741 mmHg 95%
    13:00 -15°C° 0.6 mm 3 mps 741 mmHg 94%
    14:00 -14°C° 0.6 mm 3 mps 740 mmHg 94%
    15:00 -14°C° 0.3 mm 3 mps 740 mmHg 94%
    16:00 -13°C° 0.3 mm 2 mps 739 mmHg 95%
    17:00 -13°C° 0.3 mm 2 mps 739 mmHg 95%
    18:00 -12°C° 0.3 mm 2 mps 738 mmHg 95%
    19:00 -12°C° 0.3 mm 2 mps 738 mmHg 96%
    20:00 -12°C° 0.3 mm 2 mps 737 mmHg 96%
    21:00 -10°C° 0.3 mm 1 mps 737 mmHg 96%
    22:00 -10°C° 0.3 mm 1 mps 737 mmHg 97%
    23:00 -9°C° 0.3 mm 1 mps 737 mmHg 97%

    27 January, Sunday

    Time Temperature Precipitation Wind Pressure Humidity
    00:00 -9°C° 0.1 mm 1 mps 736 mmHg 97%
    01:00 -9°C° 0.1 mm 1 mps 736 mmHg 97%
    02:00 -9°C° 0.1 mm 1 mps 736 mmHg 97%
    03:00 -8°C° 0 mm 1 mps 736 mmHg 97%
    04:00 -8°C° 0 mm 1 mps 736 mmHg 97%
    05:00 -8°C° 0 mm 1 mps 736 mmHg 97%
    06:00 -8°C° 0 mm 1 mps 736 mmHg 97%
    07:00 -7°C° 0 mm 1 mps 736 mmHg 97%
    08:00 -7°C° 0 mm 1 mps 736 mmHg 97%
    09:00 -6°C° 0 mm 1 mps 736 mmHg 96%
    10:00 -4°C° 0 mm 1 mps 737 mmHg 96%
    11:00 -5°C° 0 mm 2 mps 737 mmHg 95%
    12:00 -5°C° 0 mm 2 mps 737 mmHg 95%
    13:00 -4°C° 0 mm 2 mps 737 mmHg 94%
    14:00 -3°C° 0 mm 2 mps 737 mmHg 94%
    15:00 -3°C° 0 mm 2 mps 737 mmHg 95%
    16:00 -3°C° 0 mm 2 mps 737 mmHg 95%
    17:00 -3°C° 0 mm 2 mps 737 mmHg 96%
    18:00 -3°C° 0 mm 2 mps 738 mmHg 96%
    19:00 -3°C° 0 mm 2 mps 738 mmHg 96%
    20:00 -4°C° 0 mm 3 mps 738 mmHg 96%
    21:00 -2°C° 0 mm 2 mps 738 mmHg 96%
    22:00 -2°C° 0 mm 2 mps 738 mmHg 96%
    23:00 -2°C° 0 mm 2 mps 739 mmHg 96%

    28 January, Monday

    Time Temperature Precipitation Wind Pressure Humidity
    00:00 -2°C° 0 mm 2 mps 739 mmHg 96%
    01:00 -2°C° 0 mm 2 mps 739 mmHg 96%
    02:00 -2°C° 0 mm 2 mps 739 mmHg 96%
    03:00 -2°C° 0 mm 2 mps 739 mmHg 96%
    04:00 -2°C° 0 mm 2 mps 740 mmHg 97%
    05:00 -2°C° 0 mm 2 mps 740 mmHg 97%
    06:00 -2°C° 0 mm 2 mps 740 mmHg 97%
    07:00 -2°C° 0 mm 2 mps 740 mmHg 97%
    08:00 -2°C° 0 mm 2 mps 741 mmHg 97%
    09:00 -1°C° 0 mm 2 mps 741 mmHg 98%
    10:00 -1°C° 0 mm 2 mps 741 mmHg 99%
    11:00 +1°C° 0 mm 2 mps 742 mmHg 99%
    12:00 +1°C° 0 mm 2 mps 742 mmHg 99%
    13:00 +1°C° 0 mm 2 mps 742 mmHg 99%
    14:00 +1°C° 0 mm 2 mps 742 mmHg 99%
    15:00 +1°C° 0 mm 2 mps 742 mmHg 99%
    16:00 +1°C° 0 mm 2 mps 743 mmHg 99%
    17:00 -1°C° 0 mm 2 mps 743 mmHg 98%
    18:00 -1°C° 0 mm 2 mps 743 mmHg 98%
    19:00 -1°C° 0 mm 2 mps 743 mmHg 97%
    20:00 -1°C° 0 mm 2 mps 744 mmHg 96%
    21:00 -1°C° 0 mm 2 mps 744 mmHg 96%
    22:00 -1°C° 0 mm 2 mps 744 mmHg 96%
    23:00 -2°C° 0 mm 2 mps 744 mmHg 96%
    Show more